Springfield, OH

9:23 PM EDT on August 22, 2017 (GMT -0400)
Springfield-Beckley Municipal

Weather History for KSGH - March, 2013

Change the Weather History Date:

Sunday, March 3, 2013

  Actual Average (KFFO) Record (KFFO)
Temperature  
Mean Temperature 24 °F -  
Max Temperature 28 °F 43 °F 68 °F (2008)
Min Temperature 21 °F 24 °F 6 °F (2003)
Degree Days  
Heating Degree Days 40    
Moisture  
Dew Point 15 °F    
Average Humidity 68    
Maximum Humidity 82    
Minimum Humidity 54    
Precipitation  
Precipitation 0.00 in - - ()
Sea Level Pressure  
Sea Level Pressure 30.07 in    
Wind  
Wind Speed 8 mph (NW)    
Max Wind Speed 16 mph    
Max Gust Speed 20 mph    
Visibility 7 miles    
Events Snow    
Averages and records for this station are not official NWS values.
T = Trace of Precipitation, MM = Missing Value Source: NWS Daily Summary

Daily Weather History Graph

Daily Weather History Graph

Search for Another Location

Airport or City:

Trip Planner

Search our weather history database for the weather conditions in past years. The results will help you decide how hot, cold, wet, or windy it might be!

Date:

Astronomy

Mar. 03, 2013 Rise Set
Actual Time 7:05 AM EST 6:29 PM EST
Civil Twilight 6:38 AM EST 6:56 PM EST
Nautical Twilight 6:06 AM EST 7:28 PM EST
Astronomical Twilight 5:35 AM EST 7:59 PM EST
Moon 12:06 AM EST (3/3) 10:20 AM EST (3/3)
Length of Visible Light 12h 18m
Length of Day
11h 24m
Waning Gibbous, 64% of the Moon is Illuminated
Mar 3
Waning Gibbous
Mar 4
Last Quarter
Mar 11
New
Mar 19
First Quarter
Mar 27
Full

Hourly Weather History & Observations

Time (EST) Temp. Windchill Dew Point Humidity Pressure Visibility Wind Dir Wind Speed Gust Speed Precip Events Conditions
12:10 AM 24.8 °F 19.1 °F 17.6 °F 74% 30.04 in 8.0 mi NW 4.6 mph - 0.00 in Snow Light Snow
12:56 AM 24.1 °F 17.0 °F 18.1 °F 78% 30.09 in 8.0 mi NW 5.8 mph - 0.00 in Snow Light Snow
1:56 AM 24.1 °F 15.2 °F 17.1 °F 75% 30.09 in 7.0 mi NW 8.1 mph - 0.00 in Snow Light Snow
2:36 AM 23.0 °F 14.7 °F 17.6 °F 80% 30.04 in 6.0 mi NW 6.9 mph - 0.00 in Snow Light Snow
2:56 AM 23.0 °F 17.0 °F 17.1 °F 78% 30.07 in 7.0 mi WNW 4.6 mph - 0.00 in Snow Light Snow
3:28 AM 23.0 °F 15.8 °F 17.6 °F 80% 30.02 in 6.0 mi WNW 5.8 mph - 0.00 in Snow Light Snow
3:49 AM 23.0 °F 15.8 °F 17.6 °F 80% 30.02 in 6.0 mi NW 5.8 mph - 0.00 in Snow Light Snow
3:56 AM 23.0 °F 14.7 °F 18.1 °F 82% 30.06 in 6.0 mi NW 6.9 mph - 0.00 in Snow Light Snow
4:56 AM 22.1 °F 12.8 °F 14.0 °F 71% 30.07 in 7.0 mi NW 8.1 mph - 0.00 in Snow Light Snow
5:21 AM 21.2 °F 11.7 °F 15.8 °F 80% 30.03 in 6.0 mi NNW 8.1 mph - 0.00 in Snow Light Snow
5:56 AM 22.1 °F 11.3 °F 15.1 °F 74% 30.07 in 6.0 mi NNW 10.4 mph - 0.00 in Snow Light Snow
6:56 AM 22.1 °F 13.7 °F 14.0 °F 71% 30.08 in 7.0 mi NNW 6.9 mph - 0.00 in   Overcast
7:56 AM 22.1 °F 12.8 °F 14.0 °F 71% 30.09 in 6.0 mi NNW 8.1 mph - 0.00 in Snow Light Snow
8:56 AM 23.0 °F 14.7 °F 14.0 °F 68% 30.09 in 7.0 mi NW 6.9 mph - 0.00 in   Overcast
9:56 AM 24.1 °F 13.7 °F 14.0 °F 65% 30.09 in 6.0 mi WNW 10.4 mph - 0.00 in Snow Light Snow
10:06 AM 24.8 °F 14.0 °F 14.0 °F 64% 30.04 in 4.0 mi WNW 11.5 mph 17.3 mph 0.00 in Snow Light Snow
10:56 AM 24.1 °F 13.7 °F 17.1 °F 75% 30.09 in 4.0 mi West 10.4 mph - 0.00 in Snow Light Snow
11:12 AM 24.8 °F 15.3 °F 17.6 °F 74% 30.05 in 4.0 mi WNW 9.2 mph - 0.00 in Snow Light Snow
11:56 AM 25.2 °F 14.4 °F 16.2 °F 69% 30.09 in 5.0 mi NW 11.5 mph - 0.00 in Snow Light Snow
12:56 PM 26.1 °F 14.0 °F 15.1 °F 63% 30.07 in 7.0 mi NW 15.0 mph 19.6 mph 0.00 in   Overcast
1:56 PM 28.0 °F 17.0 °F 13.1 °F 54% 30.05 in 7.0 mi NNW 13.8 mph - N/A   Overcast
2:56 PM 27.1 °F 16.4 °F 13.1 °F 56% 30.06 in 7.0 mi NW 12.7 mph - N/A   Mostly Cloudy
3:56 PM 28.0 °F 16.1 °F 14.0 °F 56% 30.06 in 8.0 mi WNW 16.1 mph - N/A   Overcast
4:56 PM 27.1 °F 15.9 °F 13.1 °F 56% 30.07 in 7.0 mi WNW 13.8 mph - N/A   Overcast
5:56 PM 27.1 °F 18.2 °F 13.1 °F 56% 30.08 in 7.0 mi NW 9.2 mph - N/A   Overcast
6:56 PM 26.1 °F 17.6 °F 13.1 °F 58% 30.09 in 8.0 mi WNW 8.1 mph - N/A   Overcast
7:56 PM 26.1 °F 16.8 °F 13.1 °F 58% 30.10 in 8.0 mi WNW 9.2 mph - N/A   Overcast
8:56 PM 26.1 °F 17.6 °F 12.0 °F 55% 30.11 in 8.0 mi WNW 8.1 mph - N/A   Overcast
9:56 PM 25.2 °F 18.3 °F 14.0 °F 63% 30.11 in 8.0 mi WNW 5.8 mph - N/A   Overcast
10:56 PM 23.0 °F 17.0 °F 13.1 °F 66% 30.11 in 8.0 mi WNW 4.6 mph - N/A   Partly Cloudy
11:56 PM 23.0 °F 17.0 °F 12.0 °F 63% 30.11 in 8.0 mi West 4.6 mph - N/A   Partly Cloudy